Regional Weather Roundup
Issued by NWS

Home | Current Version | Previous Version | Graphics & Text | Print | Product List | Glossary On
Versions: 1 2 3 4 5 6 7 8 9 10 11 12 13 14 15 16 17 18 19 20 21 22 23 24 25 26 27 28 29 30 31 32 33 34 35 36 37 38 39 40 41 42 43 44 45 46 47 48 49 50
000
ASUS43 KBIS 310910
RWRND

NORTH DAKOTA REGIONAL WEATHER ROUNDUP
NATIONAL WEATHER SERVICE BISMARCK ND
300 AM CST SAT JAN 31 2015

NOTE: "FAIR" INDICATES FEW OR NO CLOUDS BELOW 12,000 FEET WITH NO
SIGNIFICANT WEATHER AND/OR OBSTRUCTIONS TO VISIBILITY.


NDZ001>003-009>011-017-311000-
NORTHWEST NORTH DAKOTA

CITY           SKY/WX    TMP DP  RH WIND       PRES   REMARKS
WILLISTON      CLOUDY    24  20  84 E10       30.20F WCI  14
MINOT          CLOUDY    18  14  84 N14       30.23S WCI   4
MINOT AFB      MIX PCPN  18  18 100 NE14      30.24S WCI   4
$$

NDZ018>021-031>035-040>046-311000-
SOUTHWEST NORTH DAKOTA

CITY           SKY/WX    TMP DP  RH WIND       PRES   REMARKS
BISMARCK       CLOUDY    23  22  96 N10       30.22R WCI  12
DICKINSON      FOG       24  22  91 NE9       30.12R VSB 1/2 WCI  14
GARRISON         N/A     21  18  88 NE7       30.21R WCI  12
HETTINGER ARPT CLEAR     22  19  89 E3        30.11F
$$

NDZ004>008-012>016-024-026-027-054-311000-
NORTHEAST NORTH DAKOTA

CITY           SKY/WX    TMP DP  RH WIND       PRES   REMARKS
GRAND FORKS    FLURRIES  15  10  80 N24       30.27R WCI  -4
GRND FRKS AFB  FLURRIES  14   9  79 NE21G26   30.27R WCI  -4
DEVILS LAKE    CLOUDY    12   7  79 N18       30.25R WCI  -5
$$

NDZ022-023-025-028>030-036>039-047>053-311000-
SOUTHEAST NORTH DAKOTA

CITY           SKY/WX    TMP DP  RH WIND       PRES   REMARKS
FARGO          CLOUDY    19  14  81 N15       30.23R WCI   5
JAMESTOWN      CLOUDY    22  17  81 N14       30.20R WCI   9
$$




USA.gov is the U.S. government's official web portal to all federal, state and local government web resources and services.